Year,Month,Day,Hour,Minute,Value (Times are PST for temperature in C)
2007,05,31,00,00,13.80
2007,05,31,00,01,13.80
2007,05,31,00,02,13.80
2007,05,31,00,03,13.80
2007,05,31,00,04,13.80
2007,05,31,00,05,13.80
2007,05,31,00,06,13.70
2007,05,31,00,07,13.70
2007,05,31,00,08,13.70
2007,05,31,00,09,13.70
2007,05,31,00,10,13.70
2007,05,31,00,11,13.70
2007,05,31,00,12,13.70
2007,05,31,00,13,13.70
2007,05,31,00,14,13.70
2007,05,31,00,15,13.70
2007,05,31,00,16,13.60
2007,05,31,00,17,13.60
2007,05,31,00,18,13.60
2007,05,31,00,19,13.60
2007,05,31,00,20,13.60
2007,05,31,00,21,13.60
2007,05,31,00,22,13.60
2007,05,31,00,23,13.60
2007,05,31,00,24,13.60
2007,05,31,00,25,13.50
2007,05,31,00,26,13.50
2007,05,31,00,27,13.50
2007,05,31,00,28,13.50
2007,05,31,00,29,13.50
2007,05,31,00,30,13.50
2007,05,31,00,31,13.60
2007,05,31,00,32,13.60
2007,05,31,00,33,13.60
2007,05,31,00,34,13.70
2007,05,31,00,35,13.70
2007,05,31,00,36,13.70
2007,05,31,00,37,13.70
2007,05,31,00,38,13.70
2007,05,31,00,39,13.70
2007,05,31,00,40,13.70
2007,05,31,00,41,13.70
2007,05,31,00,42,13.70
2007,05,31,00,43,13.70
2007,05,31,00,44,13.70
2007,05,31,00,45,13.70
2007,05,31,00,46,13.70
2007,05,31,00,47,13.70
2007,05,31,00,48,13.70
2007,05,31,00,49,13.70
2007,05,31,00,50,13.70
2007,05,31,00,51,13.70
2007,05,31,00,52,13.70
2007,05,31,00,53,13.70
2007,05,31,00,54,13.70
2007,05,31,00,55,13.70
2007,05,31,00,56,13.70
2007,05,31,00,57,13.70
2007,05,31,00,58,13.70
2007,05,31,00,59,13.70
2007,05,31,01,00,13.70
2007,05,31,01,01,13.70
2007,05,31,01,02,13.70
2007,05,31,01,03,13.70
2007,05,31,01,04,13.70
2007,05,31,01,05,13.60
2007,05,31,01,06,13.60
2007,05,31,01,07,13.60
2007,05,31,01,08,13.60
2007,05,31,01,09,13.60
2007,05,31,01,10,13.60
2007,05,31,01,11,13.60
2007,05,31,01,12,13.60
2007,05,31,01,13,13.60
2007,05,31,01,14,13.60
2007,05,31,01,15,13.50
2007,05,31,01,16,13.50
2007,05,31,01,17,13.50
2007,05,31,01,18,13.50
2007,05,31,01,19,13.50
2007,05,31,01,20,13.50
2007,05,31,01,21,13.50
2007,05,31,01,22,13.50
2007,05,31,01,23,13.40
2007,05,31,01,24,13.40
2007,05,31,01,25,13.40
2007,05,31,01,26,13.40
2007,05,31,01,27,13.40
2007,05,31,01,28,13.40
2007,05,31,01,29,13.30
2007,05,31,01,30,13.30
2007,05,31,01,31,13.30
2007,05,31,01,32,13.30
2007,05,31,01,33,13.30
2007,05,31,01,34,13.30
2007,05,31,01,35,13.20
2007,05,31,01,36,13.20
2007,05,31,01,37,13.20
2007,05,31,01,38,13.20
2007,05,31,01,39,13.10
2007,05,31,01,40,13.10
2007,05,31,01,41,13.10
2007,05,31,01,42,13.10
2007,05,31,01,43,13.10
2007,05,31,01,44,13.00
2007,05,31,01,45,13.00
2007,05,31,01,46,13.00
2007,05,31,01,47,13.00
2007,05,31,01,48,13.00
2007,05,31,01,49,13.00
2007,05,31,01,50,13.00
2007,05,31,01,51,12.90
2007,05,31,01,52,12.90
2007,05,31,01,53,12.90
2007,05,31,01,54,12.90
2007,05,31,01,55,12.90
2007,05,31,01,56,12.90
2007,05,31,01,57,12.80
2007,05,31,01,58,12.80
2007,05,31,01,59,12.80
2007,05,31,02,00,12.80
2007,05,31,02,01,12.80
2007,05,31,02,02,12.80
2007,05,31,02,03,12.80
2007,05,31,02,04,12.80
2007,05,31,02,05,12.70
2007,05,31,02,06,12.70
2007,05,31,02,07,12.70
2007,05,31,02,08,12.70
2007,05,31,02,09,12.60
2007,05,31,02,10,12.60
2007,05,31,02,11,12.60
2007,05,31,02,12,12.60
2007,05,31,02,13,12.50
2007,05,31,02,14,12.50
2007,05,31,02,15,12.50
2007,05,31,02,16,12.50
2007,05,31,02,17,12.40
2007,05,31,02,18,12.40
2007,05,31,02,19,12.40
2007,05,31,02,20,12.40
2007,05,31,02,21,12.40
2007,05,31,02,22,12.40
2007,05,31,02,23,12.30
2007,05,31,02,24,12.30
2007,05,31,02,25,12.30
2007,05,31,02,26,12.30
2007,05,31,02,27,12.30
2007,05,31,02,28,12.30
2007,05,31,02,29,12.30
2007,05,31,02,30,12.20
2007,05,31,02,31,12.20
2007,05,31,02,32,12.20
2007,05,31,02,33,12.20
2007,05,31,02,34,12.20
2007,05,31,02,35,12.10
2007,05,31,02,36,12.10
2007,05,31,02,37,12.10
2007,05,31,02,38,12.10
2007,05,31,02,39,12.10
2007,05,31,02,40,12.10
2007,05,31,02,41,12.20
2007,05,31,02,42,12.20
2007,05,31,02,43,12.20
2007,05,31,02,44,12.20
2007,05,31,02,45,12.20
2007,05,31,02,46,12.20
2007,05,31,02,47,12.30
2007,05,31,02,48,12.30
2007,05,31,02,49,12.30
2007,05,31,02,50,12.30
2007,05,31,02,51,12.30
2007,05,31,02,52,12.30
2007,05,31,02,53,12.30
2007,05,31,02,54,12.30
2007,05,31,02,55,12.30
2007,05,31,02,56,12.30
2007,05,31,02,57,12.30
2007,05,31,02,58,12.30
2007,05,31,02,59,12.30
2007,05,31,03,00,12.30
2007,05,31,03,01,12.30
2007,05,31,03,02,12.30
2007,05,31,03,03,12.30
2007,05,31,03,04,12.30
2007,05,31,03,05,12.30
2007,05,31,03,06,12.30
2007,05,31,03,07,12.30
2007,05,31,03,08,12.40
2007,05,31,03,09,12.40
2007,05,31,03,10,12.40
2007,05,31,03,11,12.40
2007,05,31,03,12,12.40
2007,05,31,03,13,12.40
2007,05,31,03,14,12.40
2007,05,31,03,15,12.40
2007,05,31,03,16,12.40
2007,05,31,03,17,12.40
2007,05,31,03,18,12.40
2007,05,31,03,19,12.40
2007,05,31,03,20,12.40
2007,05,31,03,21,12.40
2007,05,31,03,22,12.50
2007,05,31,03,23,12.50
2007,05,31,03,24,12.50
2007,05,31,03,25,12.40
2007,05,31,03,26,12.50
2007,05,31,03,27,12.50
2007,05,31,03,28,12.50
2007,05,31,03,29,12.50
2007,05,31,03,30,12.50
2007,05,31,03,31,12.50
2007,05,31,03,32,12.50
2007,05,31,03,33,12.50
2007,05,31,03,34,12.50
2007,05,31,03,35,12.40
2007,05,31,03,36,12.40
2007,05,31,03,37,12.40
2007,05,31,03,38,12.40
2007,05,31,03,39,12.40
2007,05,31,03,40,12.40
2007,05,31,03,41,12.40
2007,05,31,03,42,12.40
2007,05,31,03,43,12.40
2007,05,31,03,44,12.40
2007,05,31,03,45,12.30
2007,05,31,03,46,12.30
2007,05,31,03,47,12.30
2007,05,31,03,48,12.30
2007,05,31,03,49,12.30
2007,05,31,03,50,12.30
2007,05,31,03,51,12.30
2007,05,31,03,52,12.30
2007,05,31,03,53,12.30
2007,05,31,03,54,12.30
2007,05,31,03,55,12.30
2007,05,31,03,56,12.30
2007,05,31,03,57,12.30
2007,05,31,03,58,12.30
2007,05,31,03,59,12.30
2007,05,31,04,00,12.30
2007,05,31,04,01,12.30
2007,05,31,04,02,12.30
2007,05,31,04,03,12.30
2007,05,31,04,04,12.30
2007,05,31,04,05,12.30
2007,05,31,04,06,12.30
2007,05,31,04,07,12.30
2007,05,31,04,08,12.30
2007,05,31,04,09,12.30
2007,05,31,04,10,12.30
2007,05,31,04,11,12.30
2007,05,31,04,12,12.30
2007,05,31,04,13,12.30
2007,05,31,04,14,12.30
2007,05,31,04,15,12.30
2007,05,31,04,16,12.30
2007,05,31,04,17,12.30
2007,05,31,04,18,12.30
2007,05,31,04,19,12.30
2007,05,31,04,20,12.30
2007,05,31,04,21,12.30
2007,05,31,04,22,12.30
2007,05,31,04,23,12.30
2007,05,31,04,24,12.30
2007,05,31,04,25,12.20
2007,05,31,04,26,12.20
2007,05,31,04,27,12.20
2007,05,31,04,28,12.20
2007,05,31,04,29,12.20
2007,05,31,04,30,12.20
2007,05,31,04,31,12.20
2007,05,31,04,32,12.20
2007,05,31,04,33,12.20
2007,05,31,04,34,12.20
2007,05,31,04,35,12.20
2007,05,31,04,36,12.20
2007,05,31,04,37,12.20
2007,05,31,04,38,12.20
2007,05,31,04,39,12.20
2007,05,31,04,40,12.20
2007,05,31,04,41,12.20
2007,05,31,04,42,12.20
2007,05,31,04,43,12.20
2007,05,31,04,44,12.20
2007,05,31,04,45,12.20
2007,05,31,04,46,12.10
2007,05,31,04,47,12.10
2007,05,31,04,48,12.10
2007,05,31,04,49,12.10
2007,05,31,04,50,12.10
2007,05,31,04,51,12.10
2007,05,31,04,52,12.10
2007,05,31,04,53,12.10
2007,05,31,04,54,12.10
2007,05,31,04,55,12.00
2007,05,31,04,56,12.00
2007,05,31,04,57,12.00
2007,05,31,04,58,12.00
2007,05,31,04,59,12.00
2007,05,31,05,00,12.00
2007,05,31,05,01,12.00
2007,05,31,05,02,12.00
2007,05,31,05,03,12.00
2007,05,31,05,04,12.00
2007,05,31,05,05,12.00
2007,05,31,05,06,12.00
2007,05,31,05,07,12.00
2007,05,31,05,08,12.00
2007,05,31,05,09,12.00
2007,05,31,05,10,12.00
2007,05,31,05,11,12.00
2007,05,31,05,12,12.00
2007,05,31,05,13,12.00
2007,05,31,05,14,12.00
2007,05,31,05,15,12.00
2007,05,31,05,16,12.00
2007,05,31,05,17,12.00
2007,05,31,05,18,12.00
2007,05,31,05,19,12.00
2007,05,31,05,20,11.90
2007,05,31,05,21,11.90
2007,05,31,05,22,11.90
2007,05,31,05,23,11.90
2007,05,31,05,24,11.90
2007,05,31,05,25,11.90
2007,05,31,05,26,11.90
2007,05,31,05,27,11.90
2007,05,31,05,28,11.90
2007,05,31,05,29,11.90
2007,05,31,05,30,11.90
2007,05,31,05,31,11.90
2007,05,31,05,32,12.00
2007,05,31,05,33,12.00
2007,05,31,05,34,12.00
2007,05,31,05,35,12.00
2007,05,31,05,36,12.00
2007,05,31,05,37,12.10
2007,05,31,05,38,12.10
2007,05,31,05,39,12.10
2007,05,31,05,40,12.10
2007,05,31,05,41,12.20
2007,05,31,05,42,12.20
2007,05,31,05,43,12.20
2007,05,31,05,44,12.20
2007,05,31,05,45,12.30
2007,05,31,05,46,12.30
2007,05,31,05,47,12.30
2007,05,31,05,48,12.30
2007,05,31,05,49,12.30
2007,05,31,05,50,12.30
2007,05,31,05,51,12.30
2007,05,31,05,52,12.30
2007,05,31,05,53,12.30
2007,05,31,05,54,12.30
2007,05,31,05,55,12.30
2007,05,31,05,56,12.30
2007,05,31,05,57,12.30
2007,05,31,05,58,12.30
2007,05,31,05,59,12.30
2007,05,31,06,00,12.30
2007,05,31,06,01,12.30
2007,05,31,06,02,12.30
2007,05,31,06,03,12.30
2007,05,31,06,04,12.30
2007,05,31,06,05,12.30
2007,05,31,06,06,12.30
2007,05,31,06,07,12.30
2007,05,31,06,08,12.30
2007,05,31,06,09,12.30
2007,05,31,06,10,12.30
2007,05,31,06,11,12.30
2007,05,31,06,12,12.30
2007,05,31,06,13,12.30
2007,05,31,06,14,12.30
2007,05,31,06,15,12.30
2007,05,31,06,16,12.30
2007,05,31,06,17,12.30
2007,05,31,06,18,12.30
2007,05,31,06,19,12.30
2007,05,31,06,20,12.30
2007,05,31,06,21,12.30
2007,05,31,06,22,12.30
2007,05,31,06,23,12.30
2007,05,31,06,24,12.30
2007,05,31,06,25,12.30
2007,05,31,06,26,12.30
2007,05,31,06,27,12.30
2007,05,31,06,28,12.30
2007,05,31,06,29,12.30
2007,05,31,06,30,12.30
2007,05,31,06,31,12.30
2007,05,31,06,32,12.30
2007,05,31,06,33,12.40
2007,05,31,06,34,12.40
2007,05,31,06,35,12.50
2007,05,31,06,36,12.60
2007,05,31,06,37,12.60
2007,05,31,06,38,12.70
2007,05,31,06,39,12.70
2007,05,31,06,40,12.80
2007,05,31,06,41,12.80
2007,05,31,06,42,12.80
2007,05,31,06,43,12.80
2007,05,31,06,44,12.80
2007,05,31,06,45,12.80
2007,05,31,06,46,12.90
2007,05,31,06,47,12.90
2007,05,31,06,48,13.00
2007,05,31,06,49,13.00
2007,05,31,06,50,13.00
2007,05,31,06,51,13.10
2007,05,31,06,52,13.10
2007,05,31,06,53,13.20
2007,05,31,06,54,13.20
2007,05,31,06,55,13.20
2007,05,31,06,56,13.20
2007,05,31,06,57,13.30
2007,05,31,06,58,13.30
2007,05,31,06,59,13.30
2007,05,31,07,00,13.40
2007,05,31,07,01,13.40
2007,05,31,07,02,13.50
2007,05,31,07,03,13.50
2007,05,31,07,04,13.50
2007,05,31,07,05,13.60
2007,05,31,07,06,13.60
2007,05,31,07,07,13.60
2007,05,31,07,08,13.70
2007,05,31,07,09,13.70
2007,05,31,07,10,13.70
2007,05,31,07,11,13.70
2007,05,31,07,12,13.80
2007,05,31,07,13,13.80
2007,05,31,07,14,13.90
2007,05,31,07,15,13.90
2007,05,31,07,16,14.00
2007,05,31,07,17,14.10
2007,05,31,07,18,14.20
2007,05,31,07,19,14.20
2007,05,31,07,20,14.20
2007,05,31,07,21,14.20
2007,05,31,07,22,14.30
2007,05,31,07,23,14.30
2007,05,31,07,24,14.30
2007,05,31,07,25,14.30
2007,05,31,07,26,14.40
2007,05,31,07,27,14.40
2007,05,31,07,28,14.50
2007,05,31,07,29,14.50
2007,05,31,07,30,14.50
2007,05,31,07,31,14.50
2007,05,31,07,32,14.50
2007,05,31,07,33,14.50
2007,05,31,07,34,14.40
2007,05,31,07,35,14.40
2007,05,31,07,36,14.40
2007,05,31,07,37,14.40
2007,05,31,07,38,14.40
2007,05,31,07,39,14.40
2007,05,31,07,40,14.50
2007,05,31,07,41,14.50
2007,05,31,07,42,14.50
2007,05,31,07,43,14.60
2007,05,31,07,44,14.60
2007,05,31,07,45,14.60
2007,05,31,07,46,14.70
2007,05,31,07,47,14.70
2007,05,31,07,48,14.70
2007,05,31,07,49,14.60
2007,05,31,07,50,14.70
2007,05,31,07,51,14.70
2007,05,31,07,52,14.70
2007,05,31,07,53,14.70
2007,05,31,07,54,14.70
2007,05,31,07,55,14.70
2007,05,31,07,56,14.70
2007,05,31,07,57,14.70
2007,05,31,07,58,14.70
2007,05,31,07,59,14.70
2007,05,31,08,00,14.70
2007,05,31,08,01,14.70
2007,05,31,08,02,14.60
2007,05,31,08,03,14.60
2007,05,31,08,04,14.60
2007,05,31,08,05,14.60
2007,05,31,08,06,14.60
2007,05,31,08,07,14.70
2007,05,31,08,08,14.70
2007,05,31,08,09,14.80
2007,05,31,08,10,14.80
2007,05,31,08,11,14.90
2007,05,31,08,12,15.00
2007,05,31,08,13,15.00
2007,05,31,08,14,15.10
2007,05,31,08,15,15.20
2007,05,31,08,16,15.20
2007,05,31,08,17,15.20
2007,05,31,08,18,15.30
2007,05,31,08,19,15.30
2007,05,31,08,20,15.30
2007,05,31,08,21,15.40
2007,05,31,08,22,15.40
2007,05,31,08,23,15.50
2007,05,31,08,24,15.50
2007,05,31,08,25,15.50
2007,05,31,08,26,15.50
2007,05,31,08,27,15.50
2007,05,31,08,28,15.60
2007,05,31,08,29,15.60
2007,05,31,08,30,15.60
2007,05,31,08,31,15.60
2007,05,31,08,32,15.60
2007,05,31,08,33,15.60
2007,05,31,08,34,15.60
2007,05,31,08,35,15.60
2007,05,31,08,36,15.60
2007,05,31,08,37,15.60
2007,05,31,08,38,15.70
2007,05,31,08,39,15.80
2007,05,31,08,40,15.80
2007,05,31,08,41,15.70
2007,05,31,08,42,15.70
2007,05,31,08,43,15.70
2007,05,31,08,44,15.70
2007,05,31,08,45,15.80
2007,05,31,08,46,15.80
2007,05,31,08,47,15.80
2007,05,31,08,48,15.80
2007,05,31,08,49,15.80
2007,05,31,08,50,15.80
2007,05,31,08,51,15.80
2007,05,31,08,52,15.80
2007,05,31,08,53,15.80
2007,05,31,08,54,15.90
2007,05,31,08,55,15.90
2007,05,31,08,56,15.90
2007,05,31,08,57,15.90
2007,05,31,08,58,15.90
2007,05,31,08,59,15.90
2007,05,31,09,00,16.00
2007,05,31,09,01,16.00
2007,05,31,09,02,16.10
2007,05,31,09,03,16.10
2007,05,31,09,04,16.10
2007,05,31,09,05,16.10
2007,05,31,09,06,16.10
2007,05,31,09,07,16.10
2007,05,31,09,08,16.20
2007,05,31,09,09,16.20
2007,05,31,09,10,16.30
2007,05,31,09,11,16.40
2007,05,31,09,12,16.40
2007,05,31,09,13,16.40
2007,05,31,09,14,16.40
2007,05,31,09,15,16.40
2007,05,31,09,16,16.40
2007,05,31,09,17,16.40
2007,05,31,09,18,16.50
2007,05,31,09,19,16.60
2007,05,31,09,20,16.70
2007,05,31,09,21,16.70
2007,05,31,09,22,16.70
2007,05,31,09,23,16.70
2007,05,31,09,24,16.80
2007,05,31,09,25,16.90
2007,05,31,09,26,16.90
2007,05,31,09,27,17.00
2007,05,31,09,28,16.90
2007,05,31,09,29,16.90
2007,05,31,09,30,16.90
2007,05,31,09,31,16.90
2007,05,31,09,32,16.90
2007,05,31,09,33,16.90
2007,05,31,09,34,16.90
2007,05,31,09,35,16.90
2007,05,31,09,36,16.90
2007,05,31,09,37,17.00
2007,05,31,09,38,17.00
2007,05,31,09,39,16.90
2007,05,31,09,40,16.90
2007,05,31,09,41,16.90
2007,05,31,09,42,16.90
2007,05,31,09,43,16.80
2007,05,31,09,44,16.80
2007,05,31,09,45,16.80
2007,05,31,09,46,16.80
2007,05,31,09,47,16.80
2007,05,31,09,48,16.80
2007,05,31,09,49,16.80
2007,05,31,09,50,16.80
2007,05,31,09,51,16.80
2007,05,31,09,52,16.80
2007,05,31,09,53,16.90
2007,05,31,09,54,16.90
2007,05,31,09,55,16.90
2007,05,31,09,56,17.00
2007,05,31,09,57,17.10
2007,05,31,09,58,17.10
2007,05,31,09,59,17.20
2007,05,31,10,00,17.20
2007,05,31,10,01,17.20
2007,05,31,10,02,17.30
2007,05,31,10,03,17.30
2007,05,31,10,04,17.30
2007,05,31,10,05,17.30
2007,05,31,10,06,17.20
2007,05,31,10,07,17.20
2007,05,31,10,08,17.10
2007,05,31,10,09,17.00
2007,05,31,10,10,16.90
2007,05,31,10,11,16.80
2007,05,31,10,12,16.70
2007,05,31,10,13,16.70
2007,05,31,10,14,16.60
2007,05,31,10,15,16.40
2007,05,31,10,16,16.30
2007,05,31,10,17,16.20
2007,05,31,10,18,16.10
2007,05,31,10,19,16.10
2007,05,31,10,20,16.10
2007,05,31,10,21,16.10
2007,05,31,10,22,16.10
2007,05,31,10,23,15.90
2007,05,31,10,24,15.90
2007,05,31,10,25,15.80
2007,05,31,10,26,15.80
2007,05,31,10,27,15.80
2007,05,31,10,28,15.80
2007,05,31,10,29,15.80
2007,05,31,10,30,15.80
2007,05,31,10,31,15.80
2007,05,31,10,32,15.90
2007,05,31,10,33,15.90
2007,05,31,10,34,16.00
2007,05,31,10,35,16.10
2007,05,31,10,36,16.10
2007,05,31,10,37,16.00
2007,05,31,10,38,16.10
2007,05,31,10,39,16.10
2007,05,31,10,40,16.10
2007,05,31,10,41,16.20
2007,05,31,10,42,16.20
2007,05,31,10,43,16.30
2007,05,31,10,44,16.20
2007,05,31,10,45,16.10
2007,05,31,10,46,16.00
2007,05,31,10,47,15.80
2007,05,31,10,48,15.80
2007,05,31,10,49,15.80
2007,05,31,10,50,15.80
2007,05,31,10,51,15.80
2007,05,31,10,52,15.80
2007,05,31,10,53,15.80
2007,05,31,10,54,15.80
2007,05,31,10,55,15.70
2007,05,31,10,56,15.70
2007,05,31,10,57,15.50
2007,05,31,10,58,15.50
2007,05,31,10,59,15.40
2007,05,31,11,00,15.30
2007,05,31,11,01,15.30
2007,05,31,11,02,15.20
2007,05,31,11,03,15.10
2007,05,31,11,04,15.10
2007,05,31,11,05,15.00
2007,05,31,11,06,14.90
2007,05,31,11,07,14.90
2007,05,31,11,08,14.80
2007,05,31,11,09,14.80
2007,05,31,11,10,14.80
2007,05,31,11,11,14.70
2007,05,31,11,12,14.60
2007,05,31,11,13,14.70
2007,05,31,11,14,14.80
2007,05,31,11,15,14.80
2007,05,31,11,16,14.70
2007,05,31,11,17,14.60
2007,05,31,11,18,14.50
2007,05,31,11,19,14.50
2007,05,31,11,20,14.40
2007,05,31,11,21,14.30
2007,05,31,11,22,14.30
2007,05,31,11,23,14.40
2007,05,31,11,24,14.50
2007,05,31,11,25,14.50
2007,05,31,11,26,14.70
2007,05,31,11,27,14.80
2007,05,31,11,28,14.80
2007,05,31,11,29,14.80
2007,05,31,11,30,14.80
2007,05,31,11,31,14.80
2007,05,31,11,32,14.80
2007,05,31,11,33,14.80
2007,05,31,11,34,14.80
2007,05,31,11,35,14.80
2007,05,31,11,36,14.80
2007,05,31,11,37,14.80
2007,05,31,11,38,14.80
2007,05,31,11,39,14.70
2007,05,31,11,40,14.70
2007,05,31,11,41,14.70
2007,05,31,11,42,14.70
2007,05,31,11,43,14.70
2007,05,31,11,44,14.70
2007,05,31,11,45,14.80
2007,05,31,11,46,14.80
2007,05,31,11,47,14.90
2007,05,31,11,48,15.00
2007,05,31,11,49,15.10
2007,05,31,11,50,15.20
2007,05,31,11,51,15.20
2007,05,31,11,52,15.20
2007,05,31,11,53,15.20
2007,05,31,11,54,15.20
2007,05,31,11,55,15.20
2007,05,31,11,56,15.00
2007,05,31,11,57,14.90
2007,05,31,11,58,14.90
2007,05,31,11,59,14.90
2007,05,31,12,00,14.90
2007,05,31,12,01,14.90
2007,05,31,12,02,14.80
2007,05,31,12,03,14.90
2007,05,31,12,04,14.90
2007,05,31,12,05,15.00
2007,05,31,12,06,15.00
2007,05,31,12,07,14.90
2007,05,31,12,08,14.80
2007,05,31,12,09,14.70
2007,05,31,12,10,14.60
2007,05,31,12,11,14.50
2007,05,31,12,12,14.40
2007,05,31,12,13,14.40
2007,05,31,12,14,14.20
2007,05,31,12,15,14.20
2007,05,31,12,16,14.20
2007,05,31,12,17,14.20
2007,05,31,12,18,14.40
2007,05,31,12,19,14.50
2007,05,31,12,20,14.60
2007,05,31,12,21,14.80
2007,05,31,12,22,14.80
2007,05,31,12,23,14.80
2007,05,31,12,24,14.80
2007,05,31,12,25,14.80
2007,05,31,12,26,14.80
2007,05,31,12,27,14.90
2007,05,31,12,28,14.90
2007,05,31,12,29,14.90
2007,05,31,12,30,14.90
2007,05,31,12,31,14.90
2007,05,31,12,32,14.90
2007,05,31,12,33,15.00
2007,05,31,12,34,15.10
2007,05,31,12,35,15.10
2007,05,31,12,36,15.10
2007,05,31,12,37,15.10
2007,05,31,12,38,15.20
2007,05,31,12,39,15.20
2007,05,31,12,40,15.30
2007,05,31,12,41,15.20
2007,05,31,12,42,15.20
2007,05,31,12,43,15.10
2007,05,31,12,44,15.10
2007,05,31,12,45,14.90
2007,05,31,12,46,14.80
2007,05,31,12,47,14.70
2007,05,31,12,48,14.60
2007,05,31,12,49,14.50
2007,05,31,12,50,14.50
2007,05,31,12,51,14.50
2007,05,31,12,52,14.50
2007,05,31,12,53,14.60
2007,05,31,12,54,14.60
2007,05,31,12,55,14.70
2007,05,31,12,56,14.70
2007,05,31,12,57,14.70
2007,05,31,12,58,14.70
2007,05,31,12,59,14.80
2007,05,31,13,00,15.00
2007,05,31,13,01,15.00
2007,05,31,13,02,15.10
2007,05,31,13,03,15.20
2007,05,31,13,04,15.30
2007,05,31,13,05,15.50
2007,05,31,13,06,15.60
2007,05,31,13,07,15.80
2007,05,31,13,08,15.80
2007,05,31,13,09,15.80
2007,05,31,13,10,15.80
2007,05,31,13,11,15.70
2007,05,31,13,12,15.70
2007,05,31,13,13,15.70
2007,05,31,13,14,15.70
2007,05,31,13,15,15.70
2007,05,31,13,16,15.60
2007,05,31,13,17,15.60
2007,05,31,13,18,15.60
2007,05,31,13,19,15.60
2007,05,31,13,20,15.70
2007,05,31,13,21,15.80
2007,05,31,13,22,15.80
2007,05,31,13,23,15.80
2007,05,31,13,24,15.80
2007,05,31,13,25,15.80
2007,05,31,13,26,15.90
2007,05,31,13,27,16.00
2007,05,31,13,28,16.10
2007,05,31,13,29,16.20
2007,05,31,13,30,16.30
2007,05,31,13,31,16.50
2007,05,31,13,32,16.70
2007,05,31,13,33,16.80
2007,05,31,13,34,16.80
2007,05,31,13,35,16.90
2007,05,31,13,36,17.00
2007,05,31,13,37,17.00
2007,05,31,13,38,17.10
2007,05,31,13,39,17.30
2007,05,31,13,40,17.40
2007,05,31,13,41,17.50
2007,05,31,13,42,17.60
2007,05,31,13,43,17.70
2007,05,31,13,44,17.70
2007,05,31,13,45,17.80
2007,05,31,13,46,17.90
2007,05,31,13,47,18.00
2007,05,31,13,48,18.10
2007,05,31,13,49,18.20
2007,05,31,13,50,18.20
2007,05,31,13,51,18.30
2007,05,31,13,52,18.40
2007,05,31,13,53,18.50
2007,05,31,13,54,18.60
2007,05,31,13,55,18.70
2007,05,31,13,56,18.80
2007,05,31,13,57,18.90
2007,05,31,13,58,18.90
2007,05,31,13,59,19.00
2007,05,31,14,00,19.10
2007,05,31,14,01,19.10
2007,05,31,14,02,19.20
2007,05,31,14,03,19.40
2007,05,31,14,04,19.50
2007,05,31,14,05,19.50
2007,05,31,14,06,19.50
2007,05,31,14,07,19.50
2007,05,31,14,08,19.40
2007,05,31,14,09,19.40
2007,05,31,14,10,19.30
2007,05,31,14,11,19.20
2007,05,31,14,12,19.10
2007,05,31,14,13,19.20
2007,05,31,14,14,19.30
2007,05,31,14,15,19.30
2007,05,31,14,16,19.20
2007,05,31,14,17,19.20
2007,05,31,14,18,19.10
2007,05,31,14,19,19.10
2007,05,31,14,20,19.20
2007,05,31,14,21,19.30
2007,05,31,14,22,19.40
2007,05,31,14,23,19.40
2007,05,31,14,24,19.50
2007,05,31,14,25,19.60
2007,05,31,14,26,19.50
2007,05,31,14,27,19.30
2007,05,31,14,28,19.10
2007,05,31,14,29,19.00
2007,05,31,14,30,18.90
2007,05,31,14,31,18.70
2007,05,31,14,32,18.60
2007,05,31,14,33,18.50
2007,05,31,14,34,18.40
2007,05,31,14,35,18.40
2007,05,31,14,36,18.40
2007,05,31,14,37,18.20
2007,05,31,14,38,18.20
2007,05,31,14,39,18.10
2007,05,31,14,40,18.10
2007,05,31,14,41,18.20
2007,05,31,14,42,18.20
2007,05,31,14,43,18.20
2007,05,31,14,44,18.00
2007,05,31,14,45,17.90
2007,05,31,14,46,17.90
2007,05,31,14,47,17.80
2007,05,31,14,48,17.80
2007,05,31,14,49,17.70
2007,05,31,14,50,17.50
2007,05,31,14,51,17.50
2007,05,31,14,52,17.40
2007,05,31,14,53,17.30
2007,05,31,14,54,17.10
2007,05,31,14,55,16.90
2007,05,31,14,56,16.70
2007,05,31,14,57,16.30
2007,05,31,14,58,16.00
2007,05,31,14,59,15.80
2007,05,31,15,00,15.60
2007,05,31,15,01,15.60
2007,05,31,15,02,15.60
2007,05,31,15,03,15.50
2007,05,31,15,04,15.50
2007,05,31,15,05,15.50
2007,05,31,15,06,15.50
2007,05,31,15,07,15.40
2007,05,31,15,08,15.40
2007,05,31,15,09,15.40
2007,05,31,15,10,15.30
2007,05,31,15,11,15.30
2007,05,31,15,12,15.20
2007,05,31,15,13,15.30
2007,05,31,15,14,15.20
2007,05,31,15,15,15.20
2007,05,31,15,16,15.20
2007,05,31,15,17,15.20
2007,05,31,15,18,15.30
2007,05,31,15,19,15.30
2007,05,31,15,20,15.30
2007,05,31,15,21,15.20
2007,05,31,15,22,15.10
2007,05,31,15,23,15.10
2007,05,31,15,24,15.00
2007,05,31,15,25,14.90
2007,05,31,15,26,14.90
2007,05,31,15,27,14.90
2007,05,31,15,28,14.90
2007,05,31,15,29,14.70
2007,05,31,15,30,14.70
2007,05,31,15,31,14.70
2007,05,31,15,32,14.70
2007,05,31,15,33,14.60
2007,05,31,15,34,14.40
2007,05,31,15,35,14.20
2007,05,31,15,36,14.10
2007,05,31,15,37,13.90
2007,05,31,15,38,13.90
2007,05,31,15,39,13.90
2007,05,31,15,40,13.80
2007,05,31,15,41,13.90
2007,05,31,15,42,13.90
2007,05,31,15,43,14.00
2007,05,31,15,44,14.10
2007,05,31,15,45,14.10
2007,05,31,15,46,14.00
2007,05,31,15,47,13.80
2007,05,31,15,48,13.70
2007,05,31,15,49,13.70
2007,05,31,15,50,13.80
2007,05,31,15,51,13.80
2007,05,31,15,52,13.70
2007,05,31,15,53,13.70
2007,05,31,15,54,13.70
2007,05,31,15,55,13.80
2007,05,31,15,56,13.80
2007,05,31,15,57,13.90
2007,05,31,15,58,13.80
2007,05,31,15,59,13.80
2007,05,31,16,00,13.80
2007,05,31,16,01,13.80
2007,05,31,16,02,13.90
2007,05,31,16,03,14.00
2007,05,31,16,04,14.00
2007,05,31,16,05,14.00
2007,05,31,16,06,13.90
2007,05,31,16,07,13.90
2007,05,31,16,08,14.00
2007,05,31,16,09,14.20
2007,05,31,16,10,14.20
2007,05,31,16,11,14.40
2007,05,31,16,12,14.40
2007,05,31,16,13,14.50
2007,05,31,16,14,14.50
2007,05,31,16,15,14.70
2007,05,31,16,16,14.80
2007,05,31,16,17,14.90
2007,05,31,16,18,15.00
2007,05,31,16,19,15.10
2007,05,31,16,20,15.20
2007,05,31,16,21,15.30
2007,05,31,16,22,15.40
2007,05,31,16,23,15.50
2007,05,31,16,24,15.60
2007,05,31,16,25,15.80
2007,05,31,16,26,15.90
2007,05,31,16,27,16.10
2007,05,31,16,28,16.30
2007,05,31,16,29,16.40
2007,05,31,16,30,16.50
2007,05,31,16,31,16.60
2007,05,31,16,32,16.60
2007,05,31,16,33,16.40
2007,05,31,16,34,16.40
2007,05,31,16,35,16.40
2007,05,31,16,36,16.40
2007,05,31,16,37,16.40
2007,05,31,16,38,16.30
2007,05,31,16,39,16.40
2007,05,31,16,40,16.40
2007,05,31,16,41,16.40
2007,05,31,16,42,16.40
2007,05,31,16,43,16.40
2007,05,31,16,44,16.40
2007,05,31,16,45,16.50
2007,05,31,16,46,16.60
2007,05,31,16,47,16.60
2007,05,31,16,48,16.70
2007,05,31,16,49,16.80
2007,05,31,16,50,16.90
2007,05,31,16,51,17.10
2007,05,31,16,52,17.30
2007,05,31,16,53,17.50
2007,05,31,16,54,17.60
2007,05,31,16,55,17.70
2007,05,31,16,56,17.90
2007,05,31,16,57,17.80
2007,05,31,16,58,17.80
2007,05,31,16,59,17.60
2007,05,31,17,00,17.40
2007,05,31,17,01,17.20
2007,05,31,17,02,17.00
2007,05,31,17,03,16.90
2007,05,31,17,04,16.70
2007,05,31,17,05,16.70
2007,05,31,17,06,16.60
2007,05,31,17,07,16.60
2007,05,31,17,08,16.60
2007,05,31,17,09,16.60
2007,05,31,17,10,16.50
2007,05,31,17,11,16.50
2007,05,31,17,12,16.60
2007,05,31,17,13,16.60
2007,05,31,17,14,16.70
2007,05,31,17,15,16.80
2007,05,31,17,16,16.80
2007,05,31,17,17,16.90
2007,05,31,17,18,16.80
2007,05,31,17,19,16.80